ONEWEB-0162

Last updated on Sun Apr 25 2021 00:02:03 GMT+0000 (Coordinated Universal Time)

1 48056U 21025Q 21114.58336806 -.01108508 00000-0 -64136-1 0 9997 2 48056 87.4061 339.4060 0008675 139.9878 298.4649 15.15075424 1824

Satellite not in orbit

ONEWEB-0162